Simultaneous Nadir Overpasses (SNOs) Predictions

Prediction of SNOs between AQUA and METOP-A Satellite Orbit:

Table of predicted SNOs for the next 14.0 days since TLE Epoch: 11/6/2021
Index Date (AQUA) Time (AQUA) Lat,Lon (AQUA) SZA (AQUA ) Date (METOP-A) Time (METOP-A) Lat,Lon (METOP-A) SZA (METOP-A ) Distance(km) Time Diff (sec)
1 11/07/2021 03:41:43 77.91, 106.37 94.51 11/07/2021 03:41:06 77.91, 106.43 94.52 1.47 37
2 11/07/2021 04:31:09 -77.92, -86.04 85.47 11/07/2021 04:31:47 -77.92, -86.19 85.47 3.52 38
3 11/09/2021 23:16:00 77.93, 172.71 95.35 11/09/2021 23:15:25 77.91, 172.79 95.34 2.77 35
4 11/10/2021 00:05:26 -77.94, -19.69 84.63 11/10/2021 00:06:05 -77.97, -19.63 84.62 3.35 39
5 11/12/2021 18:50:15 77.92,-120.83 96.12 11/12/2021 18:49:43 77.91,-120.88 96.11 1.90 32
6 11/12/2021 19:39:42 -77.97, 46.59 83.82 11/12/2021 19:40:23 -77.97, 46.72 83.84 3.23 41
7 11/15/2021 14:24:31 77.93, -54.43 96.86 11/15/2021 14:24:01 77.95, -54.36 96.88 2.29 30
8 11/15/2021 15:13:58 -77.98, 112.99 83.08 11/15/2021 15:14:42 -77.96, 113.05 83.11 2.44 44
9 11/18/2021 09:58:47 77.96, 11.90 97.59 11/18/2021 09:58:20 77.94, 11.94 97.57 2.57 27



Historial Predications of SNOs between AQUA and METOP-A
